Regional Weather Roundup
Issued by NWS

Home | Current Version | Previous Version | Graphics & Text | Print | Product List | Glossary On
Versions: 1 2 3 4 5 6 7 8 9 10 11 12 13 14 15 16 17 18 19 20 21 22 23 24 25 26 27 28 29 30 31 32 33 34 35 36 37 38 39 40 41 42 43 44 45 46 47 48 49 50
000
ASUS43 KIND 291209
RWRIN

WEATHER ROUNDUP FOR INDIANA
NATIONAL WEATHER SERVICE INDIANAPOLIS IN
800 AM EDT MON AUG 29 2016

NOTE: "FAIR" INDICATES FEW OR NO CLOUDS BELOW 12,000 FEET WITH NO
SIGNIFICANT WEATHER AND/OR OBSTRUCTIONS TO VISIBILITY.

* - STATION DOES NOT REPORT WEATHER SUCH AS PRECIPITATION OR FOG.

+ - STATION NOT QUALITY CONTROLLED BY THE NATIONAL WEATHER SERVICE.
    USE DATA WITH CAUTION...ESPECIALLY DEWPOINT AND RELATIVE
    HUMIDITY OBSERVATIONS.

INZ001>003-010>013-019-020-291300-
NORTHWEST INDIANA

CITY           SKY/WX    TMP DP  RH WIND       PRES   REMARKS
KNOX *+        CLEAR     64  57  77 E3        30.22R
LA PORTE +     CLEAR    N/A N/A N/A CALM      30.24R FOG
MICHIGAN CITY+ CLEAR     66  66 100 MISG      30.24R
MONTICELLO +   CLEAR     68  64  87 E3        30.21R
6HR MIN TEMP:  68; 6HR MAX TEMP:  70;

RENSSELAER +   CLEAR     68  68 100 CALM      30.22R
VALPARAISO     CLEAR     67  66  97 CALM      30.24R
6HR MIN TEMP:  66; 6HR MAX TEMP:  69;


$$

LMZ046-743>745-291300-
SOUTHERN LAKE MICHIGAN

STATION/POSITION TIME  TEMP    WIND        PRES    WAVE
                       AIR SEA DIR/SP/G            HT
                 (UTC) (F)     (DEG/KT/KT) (MB)    (FT)
BURNS HARBOR     1106   70      90/  8/  9 1023.0S
MICHIGAN CITY    1100   69      40/  9/ 10   N/A
5NW MICH CITY    1200   74 76   70/ 10/ 12   N/A     1

$$

INZ004-005-014>016-021>024-291300-
NORTH CENTRAL INDIANA

CITY           SKY/WX    TMP DP  RH WIND       PRES   REMARKS
ELKHART        CLEAR    N/A N/A N/A NE6       30.24R FOG
GOSHEN         CLEAR     69  66  90 E6        30.24R
6HR MIN TEMP:  63; 6HR MAX TEMP:  69;

LOGANSPORT +   CLOUDY    68  68 100 E3        30.23R
PERU/GRISSOM   CLOUDY    70  70 100 E5        30.22R
6HR MIN TEMP:  67; 6HR MAX TEMP:  70;

ROCHESTER +    CLEAR     70  70 100 CALM      30.24R FOG
SOUTH BEND     CLEAR     68  67  96 CALM      30.25R
6HR MIN TEMP:  66; 6HR MAX TEMP:  70;

WARSAW +       CLEAR     68  68 100 E6        30.24R

$$

INZ006>009-017-018-025>027-291300-
NORTHEAST INDIANA

CITY           SKY/WX    TMP DP  RH WIND       PRES   REMARKS
ANGOLA *+      CLEAR     70  61  73 E5        30.26R
AUBURN +       FOG       68  66  94 NE9       30.26R VSB 1/4
FORT WAYNE     PTCLDY    69  66  90 E5        30.24R
6HR MIN TEMP:  66; 6HR MAX TEMP:  69;

HUNTINGTON +   PTCLDY    66  65  96 CALM      30.23R
6HR MIN TEMP:  64; 6HR MAX TEMP:  66;


$$

INZ028-029-035-036-043>045-051>053-291300-
WEST CENTRAL INDIANA

CITY           SKY/WX    TMP DP  RH WIND       PRES   REMARKS
CRAWFORDSVL +  CLEAR     67  67 100 NE3       30.22R FOG
6HR MIN TEMP:  65; 6HR MAX TEMP:  68; 6HR PCP:  0.01;

GREENCASTLE +  CLEAR     68  68 100 CALM      30.23R FOG
LAFAYETTE      CLEAR     69  69 100 NE6       30.21R
6HR MIN TEMP:  69; 6HR MAX TEMP:  72; 6HR PCP:  0.23;

TERRE HAUTE    CLEAR     70  67  90 CALM      30.21R
6HR MIN TEMP:  68; 6HR MAX TEMP:  72;


$$

INZ030>032-037>040-046>048-054>057-064-065-291300-
CENTRAL INDIANA

CITY           SKY/WX    TMP DP  RH WIND       PRES   REMARKS
COLUMBUS       CLEAR     66  66 100 CALM      30.22R FOG
INDIANAPOLIS   PTCLDY    71  68  90 E6        30.22R
6HR MIN TEMP:  69; 6HR MAX TEMP:  73;

-EAGLE CREEK   CLEAR     71  68  90 SE5       30.22R
6HR MIN TEMP:  69; 6HR MAX TEMP:  73;

KOKOMO *+      CLOUDY    70  66  88 SE3       30.23R
6HR MIN TEMP:  66; 6HR MAX TEMP:  70;

MARION +       CLOUDY    68  67  97 SE3       30.24R FOG
MT COMFORT *+  CLEAR     68  66  94 CALM      30.24R
SHELBYVILLE    CLEAR     69  65  86 CALM      30.22R FOG
6HR MIN TEMP:  67; 6HR MAX TEMP:  71;

ZIONSVILLE +   CLEAR     67  66  99 CALM      30.24R FOG
6HR MIN TEMP:  65; 6HR MAX TEMP:  67;


$$

INZ033-034-041-042-049-050-058-059-291300-
EAST CENTRAL INDIANA

CITY           SKY/WX    TMP DP  RH WIND       PRES   REMARKS
MUNCIE         CLEAR     70  67  90 CALM      30.24R
6HR MIN TEMP:  68; 6HR MAX TEMP:  70;


$$

INZ060-061-067>069-081>083-085>088-291300-
SOUTHWEST INDIANA

CITY           SKY/WX    TMP DP  RH WIND       PRES   REMARKS
EVANSVILLE     CLEAR     71  69  93 E3        30.18R
6HR MIN TEMP:  71; 6HR MAX TEMP:  75;

HUNTINGBURG *+ CLEAR     70  66  88 CALM      30.19R
6HR MIN TEMP:  70; 6HR MAX TEMP:  73;

WASHINGTON +   CLEAR     71  71 100 MISG      30.19R
6HR MIN TEMP:  69; 6HR MAX TEMP:  72;


$$

INZ062-063-066-070>080-084-089>092-291300-
SOUTH CENTRAL AND SOUTHEAST INDIANA

CITY           SKY/WX    TMP DP  RH WIND       PRES   REMARKS
BLOOMINGTON    CLEAR     71  67  87 CALM      30.22R
6HR MIN TEMP:  68; 6HR MAX TEMP:  72;

MADISON *+     CLEAR     68  66  94 CALM      30.24R

$$





USA.gov is the U.S. government's official web portal to all federal, state and local government web resources and services.